This demonstration page uses our WeatherBlox Daily Observations layout. Learn more.

Left ArrowRight Arrow

39.08367, -84.50855

Hourly Observations for May 22, 2019

Temp ( °F °C ) Dew Point ( °F °C ) Humidity (%) Winds ( mph kmh ) Pressure ( in mb ) Visibility ( mi km ) Precip ( " mm )
12:53 am 00:53 Clear 60 15.6 47 8.3 62 62 ESE 3 6 30.01 1016 10 16 N/A
1:53 am 01:53 Clear 59 15 46 7.8 62 62 VRB 3 6 29.99 1016 10 16 N/A
2:53 am 02:53 Clear 57 13.9 47 8.3 69 69 VRB 3 6 29.99 1016 10 16 N/A
3:53 am 03:53 Mostly Clear 54 12.2 50 10 87 87 VRB 5 7 29.99 1016 10 16 N/A
4:53 am 04:53 Clear 56 13.3 50 10 81 81 VRB 3 6 29.99 1016 10 16 N/A
5:53 am 05:53 Mostly Clear 56 13.3 50 10 81 81 VRB 5 7 29.97 1015 10 16 N/A
6:53 am 06:53 Mostly Sunny 57 13.9 52 11.1 83 83 N N/A 29.97 1015 10 16 N/A
7:53 am 07:53 Mostly Cloudy 62 16.7 54 12.2 75 75 N N/A 29.99 1016 10 16 N/A
8:53 am 08:53 Mostly Sunny 65 18.3 56 13.3 73 73 S 5 7 29.98 1015 10 16 N/A
9:53 am 09:53 Sunny 72 22.2 60 15.6 66 66 S 10 17 29.97 1015 10 16 N/A
10:53 am 10:53 Mostly Cloudy 76 24.4 63 17.2 64 64 S 7 11 29.98 1015 10 16 N/A
11:53 am 11:53 Sunny 82 27.8 66 18.9 58 58 SSW 15 24 29.98 1015 10 16 N/A
12:53 pm 12:53 Partly Cloudy 82 27.8 66 18.9 58 58 SW 14 22 30.00 1016 10 16 N/A
1:53 pm 13:53 Mostly Sunny 83 28.3 63 17.2 51 51 SW 13 20 29.98 1015 10 16 N/A
2:53 pm 14:53 Sunny 83 28.3 66 18.9 57 57 SSW 10 17 29.99 1016 10 16 N/A
3:53 pm 15:53 Mostly Cloudy 81 27.2 67 19.4 62 62 SSW 9 15 29.99 1016 10 16 N/A
4:53 pm 16:53 Cloudy with Light Rain 78 25.6 67 19.4 69 69 VRB 7 11 30.01 1016 10 16 N/A
5:53 pm 17:53 Mostly Cloudy 79 26.1 67 19.4 67 67 N N/A 30.00 1016 10 16 N/A
6:53 pm 18:53 Cloudy with Light Rain 76 24.4 68 20 77 77 N N/A 30.03 1017 9 14 N/A
7:53 pm 19:53 Cloudy 76 24.4 68 20 77 77 N N/A 30.02 1017 10 16 N/A
8:53 pm 20:53 Partly Cloudy 72 22.2 70 21.1 94 94 N N/A 30.03 1017 8 13 N/A
9:53 pm 21:53 Partly Cloudy 71 21.7 68 20 90 90 N N/A 30.04 1017 9 14 N/A
10:53 pm 22:53 Mostly Clear with Mist and Fog 68 20 67 19.4 96 96 N N/A 30.06 1018 5 8 N/A
11:01 pm 23:01 Mostly Clear with Mist and Fog 68 20 67 19.4 96 96 N N/A 30.06 1018 2 3 N/A
11:14 pm 23:14 Clear with Fog 67 19.4 66 18.9 97 97 N N/A 30.05 1018 1 1 N/A
11:28 pm 23:28 Clear with Fog 67 19.4 66 18.9 97 97 N N/A 30.05 1018 0 0 N/A
11:41 pm 23:41 Clear with Mist and Fog 67 19.4 65 18.3 93 93 N N/A 30.04 1017 1 2 N/A
11:50 pm 23:50 Mostly Cloudy with Mist and Fog 66 19 66 19 100 100 N N/A 30.04 1017 1 2 N/A
11:53 pm 23:53 Mostly Cloudy with Fog 67 19.4 66 18.9 97 97 N N/A 30.04 1017 1 1 N/A

Powered by AerisWeather